When you browse on this site, cookies collect data to enhance your experience and personalize the content and advertising you see.
Visit our Privacy Policy to learn more. By continuing to use the site, you agree to this use of cookies and data.
  • en Suisse
  • Liste des pays
  • À 7 jours
  • Température de l'eau
  • Carte météo
  • Widgets météo
  • user-avatar
    Se connecter

    Météo par heure à Dzhuno

    Ce jour, 8 Décembre, Dimanche

    Heure Température Précipitation Vent Pression Humidité
    00:00 -1°C° 1 mm 2 m/s 722 mmHg 97%
    01:00 -1°C° 0.3 mm 2 m/s 723 mmHg 97%
    02:00 -1°C° 0.3 mm 2 m/s 723 mmHg 96%
    03:00 -1°C° 0 mm 2 m/s 723 mmHg 96%
    04:00 -1°C° 0.3 mm 2 m/s 723 mmHg 96%
    05:00 -1°C° 0.3 mm 2 m/s 723 mmHg 95%
    06:00 -1°C° 0.3 mm 2 m/s 723 mmHg 95%
    07:00 +1°C° 0.3 mm 2 m/s 723 mmHg 96%
    08:00 +1°C° 0.3 mm 2 m/s 724 mmHg 96%
    09:00 +1°C° 0.3 mm 2 m/s 724 mmHg 97%
    10:00 +1°C° 0.2 mm 2 m/s 724 mmHg 97%
    11:00 +1°C° 0.2 mm 2 m/s 724 mmHg 97%
    12:00 +1°C° 0.2 mm 2 m/s 724 mmHg 97%
    13:00 +1°C° 0.3 mm 2 m/s 725 mmHg 97%
    14:00 +1°C° 0.3 mm 2 m/s 725 mmHg 97%
    15:00 +1°C° 0.3 mm 2 m/s 725 mmHg 97%
    16:00 +2°C° 0.5 mm 2 m/s 725 mmHg 97%
    17:00 +2°C° 0.5 mm 2 m/s 725 mmHg 98%
    18:00 +3°C° 0.5 mm 1 m/s 725 mmHg 98%
    19:00 +3°C° 0.1 mm 1 m/s 725 mmHg 98%
    20:00 +3°C° 0.1 mm 1 m/s 725 mmHg 98%
    21:00 +3°C° 0.1 mm 1 m/s 726 mmHg 98%
    22:00 +3°C° 0 mm 1 m/s 726 mmHg 97%
    23:00 +3°C° 0 mm 1 m/s 725 mmHg 96%

    Demain, 9 Décembre, Lundi

    Heure Température Précipitation Vent Pression Humidité
    00:00 +2°C° 0 mm 2 m/s 725 mmHg 95%
    01:00 +3°C° 0 mm 1 m/s 725 mmHg 93%
    02:00 +3°C° 0 mm 1 m/s 725 mmHg 92%
    03:00 +3°C° 0 mm 1 m/s 725 mmHg 90%
    04:00 +3°C° 0 mm 1 m/s 724 mmHg 89%
    05:00 +2°C° 0 mm 2 m/s 724 mmHg 88%
    06:00 +2°C° 0 mm 2 m/s 723 mmHg 87%
    07:00 +2°C° 0 mm 2 m/s 723 mmHg 86%
    08:00 +2°C° 0 mm 2 m/s 723 mmHg 84%
    09:00 +2°C° 0 mm 2 m/s 723 mmHg 83%
    10:00 +2°C° 0 mm 2 m/s 722 mmHg 83%
    11:00 +2°C° 0 mm 2 m/s 722 mmHg 82%
    12:00 +3°C° 0 mm 2 m/s 722 mmHg 82%
    13:00 +3°C° 0 mm 2 m/s 721 mmHg 80%
    14:00 +2°C° 0 mm 2 m/s 721 mmHg 78%
    15:00 +2°C° 0 mm 2 m/s 721 mmHg 76%
    16:00 +2°C° 0 mm 2 m/s 720 mmHg 75%
    17:00 +2°C° 0 mm 2 m/s 720 mmHg 75%
    18:00 +2°C° 0 mm 2 m/s 719 mmHg 74%
    19:00 +2°C° 0 mm 2 m/s 719 mmHg 74%
    20:00 +2°C° 0 mm 2 m/s 719 mmHg 73%
    21:00 +2°C° 0 mm 2 m/s 719 mmHg 73%
    22:00 +1°C° 0 mm 2 m/s 719 mmHg 75%
    23:00 +1°C° 0 mm 2 m/s 718 mmHg 76%

    Après-demain, 10 Décembre, Mardi

    Heure Température Précipitation Vent Pression Humidité
    00:00 -1°C° 0 mm 2 m/s 718 mmHg 78%
    01:00 +1°C° 0 mm 2 m/s 718 mmHg 79%
    02:00 +1°C° 0 mm 2 m/s 718 mmHg 79%
    03:00 +1°C° 0 mm 2 m/s 718 mmHg 80%
    04:00 +1°C° 0.2 mm 2 m/s 718 mmHg 84%
    05:00 +1°C° 0.2 mm 2 m/s 717 mmHg 88%
    06:00 +1°C° 0.2 mm 2 m/s 717 mmHg 93%
    07:00 +1°C° 0.4 mm 2 m/s 717 mmHg 94%
    08:00 +1°C° 0.4 mm 2 m/s 717 mmHg 96%
    09:00 +2°C° 0.4 mm 1 m/s 717 mmHg 97%
    10:00 +1°C° 0.8 mm 2 m/s 718 mmHg 97%
    11:00 +1°C° 0.8 mm 2 m/s 718 mmHg 98%
    12:00 +2°C° 0.8 mm 2 m/s 718 mmHg 98%
    13:00 +2°C° 0.3 mm 2 m/s 719 mmHg 98%
    14:00 +2°C° 0.3 mm 2 m/s 719 mmHg 98%
    15:00 +2°C° 0.3 mm 2 m/s 719 mmHg 98%
    16:00 +2°C° 0.1 mm 2 m/s 719 mmHg 98%
    17:00 +2°C° 0.1 mm 2 m/s 720 mmHg 97%
    18:00 +3°C° 0.1 mm 1 m/s 720 mmHg 97%
    19:00 +3°C° 0.2 mm 1 m/s 720 mmHg 97%
    20:00 +3°C° 0.2 mm 1 m/s 720 mmHg 97%
    21:00 +3°C° 0.2 mm 1 m/s 720 mmHg 97%
    22:00 +1°C° 0 mm 2 m/s 720 mmHg 96%
    23:00 +1°C° 0 mm 2 m/s 720 mmHg 95%

    11 Décembre, Mercredi

    Heure Température Précipitation Vent Pression Humidité
    00:00 -1°C° 0 mm 2 m/s 719 mmHg 94%
    01:00 -1°C° 0 mm 2 m/s 719 mmHg 91%
    02:00 -1°C° 0 mm 2 m/s 719 mmHg 88%
    03:00 -2°C° 0 mm 3 m/s 718 mmHg 85%
    04:00 -1°C° 0 mm 3 m/s 718 mmHg 84%
    05:00 -1°C° 0 mm 3 m/s 718 mmHg 82%
    06:00 -1°C° 0 mm 3 m/s 717 mmHg 81%
    07:00 -1°C° 0 mm 3 m/s 717 mmHg 81%
    08:00 -1°C° 0 mm 3 m/s 716 mmHg 80%
    09:00 -1°C° 0 mm 3 m/s 716 mmHg 80%
    10:00 -1°C° 0.1 mm 3 m/s 715 mmHg 80%
    11:00 -1°C° 0.1 mm 3 m/s 715 mmHg 81%
    12:00 -1°C° 0.1 mm 3 m/s 714 mmHg 81%
    13:00 -1°C° 0.2 mm 3 m/s 714 mmHg 83%
    14:00 -2°C° 0.2 mm 3 m/s 713 mmHg 84%
    15:00 -2°C° 0.2 mm 3 m/s 713 mmHg 86%
    16:00 -3°C° 0.2 mm 4 m/s 712 mmHg 86%
    17:00 -3°C° 0.2 mm 4 m/s 712 mmHg 86%
    18:00 -3°C° 0.2 mm 4 m/s 712 mmHg 86%
    19:00 -4°C° 0.5 mm 4 m/s 712 mmHg 87%
    20:00 -4°C° 0.5 mm 3 m/s 712 mmHg 89%
    21:00 -4°C° 0.5 mm 3 m/s 712 mmHg 90%
    22:00 -4°C° 0.3 mm 3 m/s 712 mmHg 91%
    23:00 -5°C° 0.3 mm 3 m/s 712 mmHg 92%

    12 Décembre, Jeudi

    Heure Température Précipitation Vent Pression Humidité
    00:00 -5°C° 0.3 mm 3 m/s 713 mmHg 92%
    01:00 -5°C° 0.1 mm 3 m/s 712 mmHg 92%
    02:00 -4°C° 0.1 mm 3 m/s 712 mmHg 92%
    03:00 -4°C° 0.1 mm 3 m/s 712 mmHg 92%
    04:00 -4°C° 0 mm 3 m/s 712 mmHg 90%
    05:00 -4°C° 0 mm 3 m/s 712 mmHg 88%
    06:00 -4°C° 0 mm 3 m/s 711 mmHg 86%
    07:00 -4°C° 0.1 mm 3 m/s 712 mmHg 85%
    08:00 -4°C° 0.1 mm 3 m/s 712 mmHg 84%
    09:00 -4°C° 0.1 mm 3 m/s 712 mmHg 82%
    10:00 -4°C° 0.1 mm 3 m/s 712 mmHg 83%
    11:00 -4°C° 0.1 mm 3 m/s 712 mmHg 83%
    12:00 -4°C° 0.1 mm 3 m/s 712 mmHg 84%
    13:00 -5°C° 0.9 mm 3 m/s 713 mmHg 87%
    14:00 -5°C° 0.9 mm 3 m/s 713 mmHg 91%
    15:00 -5°C° 0.9 mm 3 m/s 713 mmHg 95%
    16:00 -5°C° 0.7 mm 3 m/s 714 mmHg 95%
    17:00 -4°C° 0.7 mm 2 m/s 714 mmHg 95%
    18:00 -4°C° 0.7 mm 2 m/s 715 mmHg 95%
    19:00 -3°C° 1.2 mm 2 m/s 716 mmHg 96%
    20:00 -3°C° 1.2 mm 2 m/s 717 mmHg 96%
    21:00 -2°C° 1.2 mm 2 m/s 717 mmHg 97%
    22:00 -2°C° 0.4 mm 2 m/s 718 mmHg 96%
    23:00 -2°C° 0.4 mm 2 m/s 719 mmHg 95%

    13 Décembre, Vendredi

    Heure Température Précipitation Vent Pression Humidité
    00:00 -2°C° 0.4 mm 2 m/s 720 mmHg 94%
    01:00 -2°C° 0.2 mm 2 m/s 721 mmHg 95%
    02:00 -2°C° 0.2 mm 2 m/s 722 mmHg 95%
    03:00 -1°C° 0.2 mm 2 m/s 722 mmHg 95%
    04:00 -2°C° 0.1 mm 2 m/s 723 mmHg 95%
    05:00 -2°C° 0.1 mm 2 m/s 723 mmHg 95%
    06:00 -2°C° 0.1 mm 2 m/s 723 mmHg 95%
    07:00 -2°C° 0 mm 2 m/s 724 mmHg 94%
    08:00 -2°C° 0 mm 2 m/s 724 mmHg 93%
    09:00 -2°C° 0 mm 2 m/s 724 mmHg 92%
    10:00 -2°C° 0 mm 2 m/s 724 mmHg 91%
    11:00 -2°C° 0 mm 2 m/s 725 mmHg 90%
    12:00 -2°C° 0 mm 2 m/s 725 mmHg 89%
    13:00 -2°C° 0.1 mm 2 m/s 725 mmHg 89%
    14:00 0°C° 0.1 mm 1 m/s 724 mmHg 89%
    15:00 -1°C° 0.1 mm 1 m/s 724 mmHg 89%
    16:00 -1°C° 0.2 mm 1 m/s 724 mmHg 89%
    17:00 -1°C° 0.2 mm 1 m/s 725 mmHg 89%
    18:00 -1°C° 0.2 mm 1 m/s 725 mmHg 90%
    19:00 -1°C° 0.1 mm 1 m/s 725 mmHg 89%
    20:00 -1°C° 0.1 mm 1 m/s 725 mmHg 89%
    21:00 -2°C° 0.1 mm 1 m/s 725 mmHg 88%
    22:00 -2°C° 0 mm 1 m/s 724 mmHg 86%
    23:00 -2°C° 0 mm 1 m/s 724 mmHg 84%
    Voir plus